Weather History for K20V - February, 2013

Change the Weather History Date:

Sunday, February 10, 2013

  Actual Average (KEGE) Record (KEGE)
Temperature  
Mean Temperature 14 °F -  
Max Temperature 28 °F 38 °F 64 °F (2011)
Min Temperature 0 °F 8 °F -21 °F (1956)
Degree Days  
Heating Degree Days 51    
Moisture  
Dew Point 9 °F    
Average Humidity 73    
Maximum Humidity 85    
Minimum Humidity 59    
Precipitation  
Precipitation 0.00 in - - ()
Sea Level Pressure  
Sea Level Pressure 29.77 in    
Wind  
Wind Speed 5 mph (West)    
Max Wind Speed 15 mph    
Max Gust Speed 22 mph    
Averages and records for this station are not official NWS values.
T = Trace of Precipitation, MM = Missing Value Source: NWS Daily Summary

Daily Weather History Graph

Daily Weather History Graph

Search for Another Location

Airport or City:

Trip Planner

Search our weather history database for the weather conditions in past years. The results will help you decide how hot, cold, wet, or windy it might be!

Date:

Astronomy

Feb. 10, 2013 Rise Set
Actual Time 7:04 AM MST 5:35 PM MST
Civil Twilight 6:36 AM MST 6:03 PM MST
Nautical Twilight 6:04 AM MST 6:35 PM MST
Astronomical Twilight 5:32 AM MST 7:07 PM MST
Moon 6:55 AM MST (2/10) 6:29 PM MST (2/10)
Length of Visible Light 11h 27m
Length of Day
10h 31m
New Moon, 0% of the Moon is Illuminated
Feb 10
New Moon
Feb 17
First Quarter
Feb 25
Full
Mar 4
Last Quarter
Mar 11
New

Hourly Weather History & Observations

Time (MST) Temp. Windchill Dew Point Humidity Pressure Visibility Wind Dir Wind Speed Gust Speed Precip Events Conditions
12:15 AM 19.4 °F 11.5 °F 10.4 °F 68% 29.63 in - WNW 5.8 mph - N/A   Mostly Cloudy
12:36 AM 17.6 °F 9.3 °F 8.6 °F 68% 29.64 in - West 5.8 mph - N/A   Overcast
12:56 AM 17.6 °F 12.3 °F 8.6 °F 68% 29.64 in - North 3.5 mph - N/A   Overcast
1:16 AM 17.6 °F 6.4 °F 10.4 °F 73% 29.64 in - West 9.2 mph - N/A   Mostly Cloudy
1:36 AM 17.6 °F 5.0 °F 10.4 °F 73% 29.64 in - West 11.5 mph - N/A   Mostly Cloudy
1:56 AM 17.6 °F 7.3 °F 8.6 °F 68% 29.65 in - West 8.1 mph - N/A   Overcast
2:16 AM 17.6 °F 10.7 °F 8.6 °F 68% 29.65 in - West 4.6 mph - N/A   Overcast
2:36 AM 17.6 °F 7.3 °F 8.6 °F 68% 29.65 in - West 8.1 mph - N/A   Overcast
2:56 AM 17.6 °F 9.3 °F 8.6 °F 68% 29.65 in - WNW 5.8 mph - N/A   Overcast
3:15 AM 19.4 °F 11.5 °F 8.6 °F 63% 29.65 in - WNW 5.8 mph - N/A   Overcast
3:36 AM 19.4 °F 8.6 °F 10.4 °F 68% 29.66 in - West 9.2 mph - N/A   Overcast
3:55 AM 19.4 °F 11.5 °F 10.4 °F 68% 29.66 in - West 5.8 mph - N/A   Overcast
4:16 AM 19.4 °F 7.9 °F 10.4 °F 68% 29.66 in - West 10.4 mph - N/A   Overcast
4:36 AM 17.6 °F 8.2 °F 12.2 °F 79% 29.67 in - West 6.9 mph - N/A   Overcast
4:56 AM 17.6 °F 5.0 °F 12.2 °F 79% 29.67 in - West 11.5 mph 16.1 mph N/A   Overcast
5:15 AM 17.6 °F 6.4 °F 12.2 °F 79% 29.68 in - WNW 9.2 mph - N/A   Overcast
5:36 AM 17.6 °F 7.3 °F 12.2 °F 79% 29.68 in - NW 8.1 mph - N/A   Overcast
5:56 AM 19.4 °F 5.5 °F 12.2 °F 74% 29.69 in - WSW 15.0 mph 21.9 mph N/A   Overcast
6:16 AM 19.4 °F 6.0 °F 12.2 °F 74% 29.69 in - West 13.8 mph 19.6 mph N/A   Overcast
6:35 AM 17.6 °F 6.4 °F 10.4 °F 73% 29.70 in - West 9.2 mph - N/A   Overcast
6:56 AM 17.6 °F 5.7 °F 10.4 °F 73% 29.71 in - West 10.4 mph - N/A   Overcast
7:16 AM 17.6 °F 7.3 °F 10.4 °F 73% 29.72 in - West 8.1 mph - N/A   Overcast
7:36 AM 17.6 °F 8.2 °F 10.4 °F 73% 29.72 in - West 6.9 mph - N/A   Overcast
7:56 AM 17.6 °F - 10.4 °F 73% 29.73 in - Calm Calm - N/A   Overcast
8:16 AM 17.6 °F - 12.2 °F 79% 29.74 in - Calm Calm - N/A   Overcast
8:36 AM 17.6 °F - 12.2 °F 79% 29.75 in - Calm Calm - N/A   Overcast
8:56 AM 17.6 °F - 10.4 °F 73% 29.75 in - Calm Calm - N/A   Overcast
9:16 AM 19.4 °F - 12.2 °F 74% 29.75 in - Calm Calm - N/A   Overcast
9:36 AM 19.4 °F - 12.2 °F 74% 29.76 in - Calm Calm - N/A   Overcast
9:56 AM 21.2 °F - 12.2 °F 68% 29.77 in - Calm Calm - N/A   Overcast
10:16 AM 23.0 °F 18.4 °F 12.2 °F 63% 29.77 in - West 3.5 mph - N/A   Overcast
10:36 AM 24.8 °F 19.1 °F 14.0 °F 64% 29.78 in - West 4.6 mph - N/A   Overcast
10:56 AM 24.8 °F 15.3 °F 14.0 °F 64% 29.78 in - West 9.2 mph - N/A   Overcast
11:16 AM 24.8 °F 16.1 °F 14.0 °F 64% 29.78 in - West 8.1 mph - N/A   Overcast
11:36 AM 26.6 °F 19.1 °F 15.8 °F 64% 29.78 in - WSW 6.9 mph - N/A   Overcast
11:55 AM 28.4 °F 21.2 °F 17.6 °F 64% 29.78 in - West 6.9 mph - N/A   Scattered Clouds
12:16 PM 26.6 °F 20.0 °F 14.0 °F 59% 29.77 in - West 5.8 mph - N/A   Clear
12:36 PM 26.6 °F 21.2 °F 14.0 °F 59% 29.77 in - WSW 4.6 mph - N/A   Scattered Clouds
12:56 PM 26.6 °F 18.2 °F 15.8 °F 64% 29.77 in - West 8.1 mph - N/A   Mostly Cloudy
1:15 PM 23.0 °F 15.8 °F 14.0 °F 68% 29.77 in - WSW 5.8 mph - N/A   Overcast
1:35 PM 23.0 °F 17.0 °F 14.0 °F 68% 29.78 in - West 4.6 mph - N/A Snow Light Snow
1:56 PM 23.0 °F - 15.8 °F 74% 29.78 in - Calm Calm - N/A Snow Light Snow
2:16 PM 23.0 °F - 15.8 °F 74% 29.78 in - Calm Calm - N/A Snow Light Snow
2:36 PM 23.0 °F - 15.8 °F 74% 29.78 in - Calm Calm - N/A   Overcast
2:56 PM 23.0 °F - 15.8 °F 74% 29.78 in - Calm Calm - N/A   Mostly Cloudy
3:16 PM 23.0 °F - 15.8 °F 74% 29.79 in - Calm Calm - N/A   Mostly Cloudy
3:36 PM 23.0 °F - 14.0 °F 68% 29.80 in - Calm Calm - N/A   Overcast
3:56 PM 23.0 °F - 14.0 °F 68% 29.80 in - Calm Calm - N/A   Overcast
4:16 PM 23.0 °F - 14.0 °F 68% 29.81 in - Calm Calm - N/A   Overcast
4:36 PM 23.0 °F 17.0 °F 12.2 °F 63% 29.82 in - NNW 4.6 mph - N/A   Mostly Cloudy
4:56 PM 21.2 °F 13.6 °F 12.2 °F 68% 29.82 in - NNW 5.8 mph - N/A   Unknown
5:16 PM 21.2 °F 11.7 °F 12.2 °F 68% 29.83 in - NNW 8.1 mph - N/A   Scattered Clouds
5:36 PM 19.4 °F - 12.2 °F 74% 29.83 in - Calm Calm - N/A   Mostly Cloudy
5:56 PM 17.6 °F - 12.2 °F 79% 29.83 in - Calm Calm - N/A   Mostly Cloudy
6:16 PM 12.2 °F 6.1 °F 5.0 °F 73% 29.84 in - South 3.5 mph - N/A   Clear
6:35 PM 12.2 °F 6.1 °F 8.6 °F 85% 29.85 in - SSW 3.5 mph - N/A   Unknown
6:56 PM 8.6 °F - 3.2 °F 79% 29.86 in - Calm Calm - N/A   Clear
7:16 PM 8.6 °F - 3.2 °F 79% 29.86 in - Calm Calm - N/A   Unknown
7:36 PM 5.0 °F - 1.4 °F 85% 29.87 in - Calm Calm - N/A   Unknown
7:56 PM 3.2 °F - -0.4 °F 85% 29.87 in - Calm Calm - N/A   Unknown
8:16 PM 3.2 °F - -0.4 °F 85% 29.88 in - Calm Calm - N/A   Unknown
8:35 PM 3.2 °F - -0.4 °F 85% 29.89 in - Calm Calm - N/A   Unknown
8:55 PM 1.4 °F - -2.2 °F 85% 29.90 in - Calm Calm - N/A   Unknown
9:16 PM 1.4 °F - -4.0 °F 78% 29.90 in - Calm Calm - N/A   Unknown
9:36 PM -0.4 °F - -4.0 °F 85% 29.91 in - Calm Calm - N/A   Unknown
9:56 PM 1.4 °F - -4.0 °F 78% 29.91 in - Calm Calm - N/A   Unknown
10:16 PM 1.4 °F - -4.0 °F 78% 29.92 in - Calm Calm - N/A   Unknown
10:36 PM 1.4 °F - -4.0 °F 78% 29.92 in - Calm Calm - N/A   Mostly Cloudy
10:56 PM -0.4 °F - -4.0 °F 85% 29.92 in - Calm Calm - N/A   Overcast
11:16 PM -0.4 °F - -4.0 °F 85% 29.92 in - Calm Calm - N/A   Unknown
11:36 PM -0.4 °F -8.3 °F -4.0 °F 85% 29.92 in - SSE 3.5 mph - N/A   Mostly Cloudy
11:56 PM 1.4 °F - -4.0 °F 78% 29.92 in - Calm Calm - N/A Snow Light Snow